| time (UTC) | temp C | wind direction | speed KPH | gust KPH | rain 1hr cm | rain 24hr cm | rain mn cm | humidity % | barometer mb |
| 20260906203056 | -17 | 291 | 0.0 | 12.9 | 0.00 | 0.00 | 0.00 | 1020.4 | |
| 20260906201558 | -17 | 297 | 6.4 | 12.9 | 0.00 | 0.00 | 0.00 | 1020.2 | |
| 20260906200047 | -17 | 250 | 9.7 | 14.5 | 0.00 | 0.00 | 0.00 | 1020.1 | |
| 20260906194543 | -17 | 260 | 6.4 | 11.3 | 0.00 | 0.00 | 0.00 | 1019.9 | |
| 20260906193038 | -17 | 336 | 0.0 | 8.0 | 0.00 | 0.00 | 0.00 | 1019.7 | |
| 20260906191533 | -17 | 71 | 8.0 | 14.5 | 0.00 | 0.00 | 0.00 | 1019.6 | |
| 20260906190029 | -17 | 31 | 12.9 | 19.3 | 0.00 | 0.00 | 0.00 | 1019.4 | |
| 20260906184525 | -17 | 356 | 6.4 | 14.5 | 0.00 | 0.00 | 0.00 | 1019.3 | |
| 20260906183020 | -17 | 267 | 0.0 | 12.9 | 0.00 | 0.00 | 0.00 | 1019.2 | |
| 20260906181516 | -17 | 268 | 0.0 | 9.7 | 0.00 | 0.00 | 0.00 | 1019.1 | |
| 20260906180011 | -17 | 357 | 3.2 | 9.7 | 0.00 | 0.00 | 0.00 | 1019.3 | |
| 20260906174510 | -17 | 41 | 1.6 | 14.5 | 0.00 | 0.00 | 0.00 | 1019.2 | |
| 20260906173004 | -17 | 41 | 6.4 | 17.7 | 0.00 | 0.00 | 0.00 | 1019.3 | |
| 20260906171602 | -17 | 356 | 8.0 | 25.7 | 0.00 | 0.00 | 0.00 | 1019.3 | |
| 20260906170105 | -17 | 25 | 12.9 | 24.1 | 0.00 | 0.00 | 0.00 | 1019.2 | |
| 20260906164527 | -17 | 41 | 12.9 | 32.2 | 0.00 | 0.00 | 0.00 | 1019.1 | |
| 20260906163022 | -17 | 54 | 11.3 | 27.4 | 0.00 | 0.00 | 0.00 | 1019.2 | |
| 20260906161518 | -17 | 17 | 8.0 | 29.0 | 0.00 | 0.00 | 0.00 | 1019.2 | |
| 20260906160014 | -17 | 19 | 9.7 | 20.9 | 0.00 | 0.00 | 0.00 | 1019.2 | |
| 20260906154518 | -17 | 12 | 16.1 | 24.1 | 0.00 | 0.00 | 0.00 | 1019.3 | |
| 20260906153014 | -17 | 27 | 19.3 | 27.4 | 0.00 | 0.00 | 0.00 | 1019.3 | |
| 20260906151612 | -17 | 127 | 8.0 | 20.9 | 0.00 | 0.00 | 0.00 | 1019.4 | |
| 20260906150103 | -17 | 22 | 12.9 | 25.7 | 0.00 | 0.00 | 0.00 | 1019.3 | |
| 20260906144553 | -17 | 71 | 9.7 | 25.7 | 0.00 | 0.00 | 0.00 | 1019.4 | |
| 20260906143105 | -17 | 46 | 11.3 | 22.5 | 0.00 | 0.00 | 0.00 | 1019.4 | |
| 20260906141544 | -17 | 32 | 19.3 | 27.4 | 0.00 | 0.00 | 0.00 | 1019.5 | |
| 20260906140047 | -17 | 36 | 16.1 | 22.5 | 0.00 | 0.00 | 0.00 | 1019.7 | |
| 20260906134545 | -17 | 63 | 14.5 | 27.4 | 0.00 | 0.00 | 0.00 | 1019.8 | |
| 20260906133030 | -17 | 54 | 8.0 | 24.1 | 0.00 | 0.00 | 0.00 | 1019.9 | |
| 20260906131526 | -17 | 41 | 9.7 | 20.9 | 0.00 | 0.00 | 0.00 | 1019.7 | |
| 20260906130022 | -17 | 30 | 9.7 | 22.5 | 0.00 | 0.00 | 0.00 | 1019.6 | |
| 20260906124530 | -17 | 22 | 8.0 | 20.9 | 0.00 | 0.00 | 0.00 | 1019.8 | |
| 20260906123016 | -17 | 343 | 3.2 | 22.5 | 0.00 | 0.00 | 0.00 | 1019.9 | |
| 20260906121509 | -17 | 11 | 6.4 | 20.9 | 0.00 | 0.00 | 0.00 | 1019.9 | |
| 20260906120005 | -17 | 31 | 12.9 | 22.5 | 0.00 | 0.00 | 0.00 | 1019.9 | |
| 20260906114610 | -17 | 12 | 12.9 | 19.3 | 0.00 | 0.00 | 0.00 | 1020.0 | |
| 20260906113055 | -17 | 4 | 6.4 | 20.9 | 0.00 | 0.00 | 0.00 | 1020.2 | |
| 20260906111551 | -17 | 41 | 16.1 | 20.9 | 0.00 | 0.00 | 0.00 | 1020.2 | |
| 20260906110047 | -17 | 41 | 9.7 | 20.9 | 0.00 | 0.00 | 0.00 | 1020.5 | |
| 20260906104542 | -17 | 46 | 0.0 | 9.7 | 0.00 | 0.00 | 0.00 | 1020.4 | |
| 20260906103037 | -17 | 301 | 1.6 | 9.7 | 0.00 | 0.00 | 0.00 | 1020.2 | |
| 20260906101533 | -17 | 329 | 8.0 | 12.9 | 0.00 | 0.00 | 0.00 | 1020.0 | |
| 20260906100028 | -17 | 242 | 4.8 | 9.7 | 0.00 | 0.00 | 0.00 | 1019.9 | |
| 20260906094524 | -17 | 191 | 0.0 | 1.6 | 0.00 | 0.00 | 0.00 | 1019.8 | |
| 20260906093022 | -17 | 191 | 0.0 | 4.8 | 0.00 | 0.00 | 0.00 | 1019.7 | |
| 20260906091516 | -17 | 191 | 0.0 | 0.0 | 0.00 | 0.00 | 0.00 | 1019.6 | |
| 20260906090010 | -17 | 191 | 0.0 | 8.0 | 0.00 | 0.00 | 0.00 | 1019.7 | |
| 20260906084506 | -17 | 177 | 0.0 | 0.0 | 0.00 | 0.00 | 0.00 | 1019.7 | |
| 20260906083001 | -17 | 177 | 1.6 | 9.7 | 0.00 | 0.00 | 0.00 | 1019.7 | |
| 20260906081558 | -17 | 245 | 4.8 | 16.1 | 0.00 | 0.00 | 0.00 | 1019.9 | |
| 20260906080053 | -17 | 222 | 11.3 | 19.3 | 0.00 | 0.00 | 0.00 | 1019.6 | |
| 20260906074551 | -17 | 239 | 4.8 | 9.7 | 0.00 | 0.00 | 0.00 | 1019.6 | |
| 20260906073044 | -17 | 218 | 8.0 | 12.9 | 0.00 | 0.00 | 0.00 | 1019.3 | |
| 20260906071539 | -17 | 231 | 1.6 | 11.3 | 0.00 | 0.00 | 0.00 | 1019.0 | |
| 20260906070035 | -17 | 235 | 4.8 | 11.3 | 0.00 | 0.00 | 0.00 | 1018.8 | |
| 20260906064530 | -17 | 221 | 4.8 | 11.3 | 0.00 | 0.00 | 0.00 | 1018.8 | |
| 20260906063028 | -17 | 229 | 4.8 | 8.0 | 0.00 | 0.00 | 0.00 | 1018.7 | |
| 20260906061524 | -17 | 284 | 0.0 | 0.0 | 0.00 | 0.00 | 0.00 | 1018.6 | |
| 20260906060017 | -17 | 284 | 0.0 | 0.0 | 0.00 | 0.00 | 0.00 | 1018.6 | |
| 20260906054513 | -17 | 282 | 0.0 | 6.4 | 0.00 | 0.00 | 0.00 | 1018.7 | |
| 20260906053008 | -17 | 229 | 6.4 | 9.7 | 0.00 | 0.00 | 0.00 | 1018.8 | |
| 20260906051505 | -17 | 235 | 4.8 | 16.1 | 0.00 | 0.00 | 0.00 | 1018.9 | |
| 20260906050002 | -17 | 231 | 8.0 | 16.1 | 0.00 | 0.00 | 0.00 | 1018.7 | |
| 20260906044557 | -17 | 248 | 6.4 | 12.9 | 0.00 | 0.00 | 0.00 | 1018.4 | |
| 20260906043059 | -17 | 228 | 4.8 | 9.7 | 0.00 | 0.00 | 0.00 | 1018.4 | |
| 20260906041552 | -17 | 117 | 0.0 | 0.0 | 0.00 | 0.00 | 0.00 | 1018.2 | |
| 20260906040043 | -17 | 117 | 0.0 | 0.0 | 0.00 | 0.00 | 0.00 | 1018.2 | |
| 20260906034537 | -17 | 162 | 0.0 | 6.4 | 0.00 | 0.00 | 0.00 | 1018.1 | |
| 20260906033036 | -17 | 245 | 0.0 | 0.0 | 0.00 | 0.00 | 0.00 | 1018.3 | |
| 20260906031528 | -17 | 245 | 0.0 | 0.0 | 0.00 | 0.00 | 0.00 | 1018.5 | |
| 20260906030024 | -17 | 245 | 0.0 | 0.0 | 0.00 | 0.00 | 0.00 | 1018.8 | |
| 20260906024520 | -17 | 246 | 3.2 | 9.7 | 0.00 | 0.00 | 0.00 | 1018.8 | |
| 20260906023016 | -17 | 219 | 9.7 | 14.5 | 0.00 | 0.00 | 0.00 | 1018.6 | |
| 20260906021511 | -17 | 254 | 6.4 | 9.7 | 0.00 | 0.00 | 0.00 | 1018.4 | |
| 20260906020010 | -17 | 243 | 6.4 | 9.7 | 0.00 | 0.00 | 0.00 | 1018.4 | |
| 20260906014504 | -17 | 213 | 0.0 | 0.0 | 0.00 | 0.00 | 0.00 | 1018.5 | |
| 20260906013109 | -17 | 213 | 0.0 | 6.4 | 0.00 | 0.00 | 0.00 | 1018.5 | |
| 20260906011601 | -17 | 213 | 0.0 | 6.4 | 0.00 | 0.00 | 0.00 | 1018.6 | |
| 20260906010046 | -17 | 213 | 0.0 | 0.0 | 0.00 | 0.00 | 0.00 | 1018.7 | |
| 20260906004542 | -17 | 213 | 3.2 | 6.4 | 0.00 | 0.00 | 0.00 | 1018.8 | |
| 20260906003030 | -17 | 213 | 0.0 | 6.4 | 0.00 | 0.00 | 0.00 | 1018.9 | |
| 20260906001526 | -17 | 213 | 4.8 | 9.7 | 0.00 | 0.00 | 0.00 | 1019.1 | |
| 20260906000036 | -17 | 216 | 3.2 | 12.9 | 0.00 | 0.00 | 0.00 | 1019.2 | |
| 20260905234517 | -17 | 223 | 0.0 | 0.0 | 0.00 | 0.00 | 0.00 | 1019.4 | |
| 20260905233012 | -17 | 223 | 3.2 | 11.3 | 0.00 | 0.00 | 0.00 | 1019.4 | |
| 20260905231508 | -17 | 212 | 8.0 | 16.1 | 0.00 | 0.00 | 0.00 | 1019.6 | |
| 20260905230003 | -17 | 203 | 11.3 | 19.3 | 0.00 | 0.00 | 0.00 | 1019.6 | |
| 20260905224559 | -17 | 230 | 9.7 | 16.1 | 0.00 | 0.00 | 0.00 | 1019.6 | |
| 20260905223055 | -17 | 225 | 11.3 | 12.9 | 0.00 | 0.00 | 0.00 | 1019.5 | |
| 20260905221552 | -17 | 232 | 8.0 | 12.9 | 0.00 | 0.00 | 0.00 | 1019.6 | |
| 20260905220045 | -17 | 228 | 4.8 | 11.3 | 0.00 | 0.00 | 0.00 | 1019.5 | |
| 20260905214544 | -17 | 215 | 9.7 | 14.5 | 0.00 | 0.00 | 0.00 | 1019.3 | |
| 20260905213044 | -17 | 229 | 6.4 | 9.7 | 0.00 | 0.00 | 0.00 | 1019.3 | |
| 20260905211550 | -17 | 236 | 4.8 | 8.0 | 0.00 | 0.00 | 0.00 | 1019.1 | |
| 20260905210047 | -17 | 246 | 3.2 | 9.7 | 0.00 | 0.00 | 0.00 | 1018.9 | |
| 20260905204546 | -17 | 229 | 4.8 | 11.3 | 0.00 | 0.00 | 0.00 | 1018.8 |